This is the latest recevied weather packets stored in our database for station/object AI5BL. If no packets are shown the sender has not sent any weather packets the latest 10 day(s).
| Time | Temp. | Humidity | Pressure | Rain* | Wind** | Luminosity | Snow |
|---|---|---|---|---|---|---|---|
| 1778122185 | 21.67° C | 99% | 1013.4 hPa | 1.78 mm | - | 0 W/m² | - |
| 1778121882 | 21.67° C | 99% | 1013.1 hPa | 1.78 mm | - | 0 W/m² | - |
| 1778121577 | 21.67° C | 99% | 1012.8 hPa | 0 mm | - | 0 W/m² | - |
| 1778121275 | 21.67° C | 99% | 1013.5 hPa | 0 mm | - | 0 W/m² | - |
| 1778120972 | 21.67° C | 99% | 1013.1 hPa | 0 mm | - | 0 W/m² | - |
| 1778120669 | 21.67° C | 99% | 1013.2 hPa | 0 mm | - | 0 W/m² | - |
| 1778120365 | 21.67° C | 98% | 1013.4 hPa | 0 mm | - | 0 W/m² | - |
| 1778120060 | 21.67° C | 98% | 1013.2 hPa | 0 mm | - | 0 W/m² | - |
| 1778119758 | 21.67° C | 98% | 1013.1 hPa | 0 mm | - | 0 W/m² | - |
| 1778119454 | 21.67° C | 98% | 1013.3 hPa | 0 mm | - | 0 W/m² | - |
| 1778119152 | 22.22° C | 98% | 1013.5 hPa | 0 mm | - | 0 W/m² | - |
| 1778118850 | 22.22° C | 98% | 1013.7 hPa | 0 mm | - | 0 W/m² | - |
| 1778118546 | 22.22° C | 97% | 1013.3 hPa | 0 mm | - | 0 W/m² | - |
| 1778118242 | 22.78° C | 98% | 1013.1 hPa | 0 mm | - | 0 W/m² | - |
| 1778117939 | 22.78° C | 98% | 1013.1 hPa | 1.27 mm | - | 0 W/m² | - |
| 1778117636 | 23.33° C | 98% | 1013.4 hPa | 3.05 mm | - | 0 W/m² | - |
| 1778117334 | 23.33° C | 99% | 1013.3 hPa | 1.27 mm | - | 0 W/m² | - |
| 1778117029 | 23.33° C | 99% | 1013.1 hPa | 0 mm | - | 0 W/m² | - |
| 1778116721 | 23.33° C | 99% | 1012.3 hPa | 0 mm | - | 0 W/m² | - |
| 1778116418 | 23.33° C | 98% | 1012.4 hPa | 0 mm | - | 0 W/m² | - |
| 1778116117 | 23.33° C | 98% | 1012.5 hPa | 0 mm | - | 0 W/m² | - |
| 1778115813 | 23.89° C | 98% | 1012.4 hPa | 1.78 mm | - | 0 W/m² | - |
| 1778115511 | 23.89° C | 98% | 1012.4 hPa | 1.27 mm | - | 0 W/m² | - |
| 1778115207 | 23.89° C | 97% | 1012.2 hPa | 1.27 mm | - | 0 W/m² | - |
| 1778114904 | 23.89° C | 97% | 1012.4 hPa | 1.78 mm | - | 0 W/m² | - |
* Rain latest hour (hover to see other rain measurements)
** Current wind speed in m/s (hover to see current wind gust speed)